www.pogodaiklimat.ru
ПОГОДА в Мидвилле
Время
и дата
12:53 23.07
13:53 23.07
14:53 23.07
15:53 23.07
16:53 23.07
17:39 23.07
17:53 23.07
18:24 23.07
18:53 23.07
19:53 23.07
20:53 23.07
21:29 23.07
21:36 23.07
21:40 23.07
21:53 23.07
22:53 23.07
23:53 23.07
00:53 24.07
01:53 24.07
02:53 24.07
03:53 24.07
04:53 24.07
05:53 24.07
06:53 24.07
07:53 24.07
08:33 24.07
08:53 24.07
09:53 24.07
10:53 24.07
11:53 24.07
12:53 24.07
13:53 24.07
14:53 24.07
15:14 24.07
15:18 24.07
15:20 24.07
15:29 24.07
15:39 24.07
15:46 24.07
15:53 24.07
16:09 24.07
16:53 24.07
17:53 24.07
18:53 24.07
19:53 24.07
20:53 24.07
21:53 24.07
22:53 24.07
Ветер
(напр.,м/с)
Видим. Явления Облачность Т
(С)
Тd
(С)
f
(%)
Тe
(С)
Тes
(С)
Комфортность P
(гПа)
Po
(гПа)
Тmin
(С)
Tmax
(С)
R
(мм)
R24
(мм)
S
(см)
нст 2 16 км 8/8 1170 м +26.1 +17.2 58 +30 +34 душно 1018.2 968.6 +18.3 +27.2
Ю 3 16 км 8/5 1800 m
[Ac]
+26.1 +16.7 56 +30 +34 душно 1017.8 968.3
нст 2 16 км ясно +28.3 +16.1 48 +32 +48 душно 1017.0 967.6
ЮЗ 2 16 км 10/10 1440 м +26.1 +16.7 56 +30 +30 душно 1016.9 967.3
16 км 8/5 1380 m
[Ac]
+25.0 +19.4 71 +30 +34 душно 1017.0 967.3
штиль 0 16 км гроза 10/10 1230 m
[Cb]
+22.8 +20.0 84 +29 +29 очень
душно
967.3
СЗ 4 16 км гроза 10/10 720 m
[Cb]
+21.7 +18.3 81 +26 +26 душно 1017.9 968.0
С 3 16 км 10/2 1170 m
[Ac]
+20.6 +16.7 78 +24 +25 комфорт 968.0
СВ 2 16 км 8/2 1230 m
[Ac]
+20.6 +17.2 81 +25 +25 комфорт 1018.1 968.0 +20.0 +28.9 1.0
В 2 16 км слабый дождь 10/2 1080 m
[Ac Ns]
+20.6 +17.8 84 +25 +25 комфорт 1017.9 968.3
штиль 0 16 км 10/0 2400 m
[Ac]
+20.0 +17.8 87 +23 +23 комфорт 1018.6 968.6
штиль 0 3 км дождь, дымка 8/8 960 m
[Ac Ns]
+19.4 +18.3 93 +21 +21 комфорт 968.9
штиль 0 2 км гроза со слабым дождем, дымка 8/8 840 m
[Cb]
+19.4 +18.3 93 +21 +21 комфорт 968.6
штиль 0 6 км гроза со слабым дождем, дымка 8/8 1050 m
[Ac Cb]
+19.4 +18.3 93 +21 +21 комфорт 968.6
В 3 16 км 10/8 990 m
[Ac]
+19.4 +18.3 93 +22 +22 комфорт 1018.4 968.6 5.6
штиль 0 14 км 2/2 1200 м +19.4 +18.3 93 +21 +21 комфорт 1018.4 968.6
штиль 0 16 км ясно +19.4 +18.3 93 +21 +21 комфорт 1018.1 968.3
Ю 2 16 км ясно +19.4 +18.3 93 +22 +22 комфорт 1017.7 968.0 +19.4 +21.1 5.6
Ю 3 16 км ясно +18.9 +17.8 93 +21 +21 комфорт 1017.6 968.0
Ю 2 14 км ясно +18.3 +17.8 97 +19 +19 1017.7 968.0
Ю 3 16 км ясно +18.3 +17.8 97 +19 +19 1017.7 968.0
Ю 2 16 км ясно +18.9 +17.8 93 +21 +21 комфорт 1017.8 968.0
Ю 3 13 км ясно +18.9 +17.8 93 +21 +21 комфорт 1018.2 968.3
Ю 3 13 км ясно +19.4 +18.3 93 +22 +22 комфорт 1018.6 968.6 +18.3 +19.4 6.6
Ю 3 16 км 8/8 1350 м +20.6 +19.4 93 +25 +26 комфорт 1018.8 968.9
ЮЗ 3 16 км 2/2 240 м +22.2 +20.0 87 +28 +32 душно 968.9
ЮЗ 3 16 км ясно +22.8 +19.4 81 +29 +34 очень
душно
1019.0 969.3
ЮЗ 4
{8}
16 км ясно +25.0 +20.0 74 +31 +38 очень
душно
1018.7 968.9
ЮЗ 4
{13}
16 км 8/8 840 м +26.1 +19.4 67 +32 +33 очень
душно
1018.4 968.6
ЮЗ 5
{13}
13 км слабый дождь 10/5 1050 m
[Ac Ns]
+23.3 +19.4 79 +30 +31 очень
душно
1018.6 968.6
Ю 3 16 км слабый дождь 8/5 720 m
[Ac Ns]
+25.0 +21.1 79 +32 +36 очень
душно
1018.0 968.3 +19.4 +26.7 1.0
З 3 14 км слабый дождь 8/5 930 m
[Ac Ns]
+24.4 +20.6 79 +30 +35 очень
душно
1017.8 968.0
СЗ 2 16 км гроза 8/5 1170 m
[Ac Cb]
+25.0 +20.0 74 +31 +35 очень
душно
1017.2 967.3
З 6
{10}
2 км гроза с сильным дождем 10/8 420 m
[Ac Cb]
+21.7 +18.9 84 +27 +27 душно 968.9
ЮЗ 4
{10}
800 м сильный дождь, туман 10/8 360 m
[Ac Ns]
+20.6 +18.3 87 +25 +25 комфорт 968.6
нст 3
{10}
400 м гроза с сильным дождем, туман 10/8 360 m
[Ac Cb]
+20.6 +18.9 90 +25 +26 комфорт 968.6
ЮЗ 5
{13}
2 км гроза с сильным дождем, дымка 10/10 720 m
[Cb]
+19.4 +17.8 90
З 5 6 км гроза со слабым дождем, дымка 10/8 720 m
[Ac Cb]
+18.9 +17.2 90 +20 +20 968.3
З 4 6 км гроза, слабый дождь, дымка 10/8 780 m
[Ac Cb]
+18.9 +17.2 90 +20 +21 968.3
14 км гроза, слабый дождь 10/8 960 m
[Ac Cb]
+18.9 +17.8 93 +20 +21 1018.7 968.6 18.5
Ю 3 16 км 5/5 900 м +21.1 +18.9 87 +25 +29 комфорт 968.6
Ю 4 16 км 2/2 1650 м +21.1 +18.9 87 +25 +30 комфорт 1018.4 968.3
ЮЗ 3 16 км ясно +21.1 +18.3 84 +25 +29 комфорт 1018.5 968.6
ЮЗ 2 16 км 5/5 750 м +21.1 +18.9 87 +25 +26 комфорт 1018.8 968.9 +18.9 +26.7 18.5
ЮЗ 2 16 км ясно +19.4 +18.3 93 +22 +22 комфорт 1019.0 968.9
ЮЗ 2 16 км 5/5 660 м +19.4 +18.3 93 +22 +22 комфорт 1019.7 969.9
З 2 16 км 2/2 690 м +19.4 +17.8 90 +22 +22 комфорт 1019.8 969.9
З 2 14 км ясно +18.3 +17.8 97 +19 +19 1019.7 969.9
Местоположение метеостанции Port Meadville Airport: широта 41.6264 долгота -80.2147 высота над уровнем моря 427 м.
В архиве по умолчанию представлена погода в Мидвилле за последние 1-2 суток. Обновление информации о фактической погоде в базе происходит ежечасно! Архивные данные за месяц целиком и за предыдущие месяцы Вы можете получить, выбрав интересующий диапазон дат из раскрывающегося списка и нажав кнопку "Ввод!".
Внимание! Архив погоды МЕТАР в базе сайта по станциям, не включенным в климатический монитор, хранится не более 60 дней. Нет смысла пытаться выбрать более раннюю дату.
*Определитесь, кто Вы:
Внимание! Время в таблицах - местное (без учета летнего времени). Для получения всемирного времени необходимо вычесть поправку, которая равна -5 ч.
Смотрите также архив погоды в соседних городах и на ближайших метеорологических станциях:
Партнеры нашего сайта:      
Пояснения к столбцам:
  • Ветер - указаны скорость ветра в м/с - средняя за 10 мин, порывы в срок и между сроками (в фигурных скобках) и направление, откуда дует ветер: С - северный,
  • СВ - северо-восточный, В - восточный, ЮВ - юго-восточный, Ю - южный, ЮЗ - юго-западный, З - западный, СЗ - северо-западный.
  • Видимость - горизонтальная дальность видимости в метрах или километрах. При видимости от 1 до 10 км при отсутствии осадков обычно наблюдается дымка, при ухудшении видимости до 1 км и менее - туман. В сухую погоду видимость может ухудшаться дымом, пылью или мглою.
  • Явления - указаны атмосферные явления, наблюдавшиеся в срок или в последний час перед сроком; фигурными скобками обозначены явления, наблюдавшиеся между сроками (за 1-3 часа до срока); квадратными скобками обозначены град или гололедные отложения с указанием их диаметра в мм.
  • Облачность - указаны через наклонную черту общая и нижняя облачность в баллах и высота нижней границы облаков в метрах; квадратными скобками обозначены формы облаков: Ci - перистые, Cs - перисто-слоистые, Cc - перисто-кучевые, Ac - высококучевые, As - высокослоистые, Sc - слоисто-кучевые, Ns - слоисто-дождевые, Cu - кучевые, Cb - кучево-дождевые. Подробнее классификацию облаков см. в Атласе облаков (PDF).
  • T - Температура воздуха - температура, измеренная на высоте 2 м над землей.
  • Td - Температура точки росы - температура, при понижении до которой содержащийся в воздухе водяной пар достигнет насыщения.
  • f - Относительная влажность воздуха - влажноcть воздуха, измеренная на высоте 2 м над землей.
  • Te - Эффективная температура - температура, которую ощущает одетый по сезону человек в тени. Характеристика душности погоды. При расчете учитывается влияние влажности воздуха и скорости ветра на теплоощущения человека.
  • Tes - Эффективная температура на солнце - температура, которую ощущает человек, с поправкой на солнечный нагрев. Характеристика знойности погоды. Зависит от высоты солнца над горизонтом, облачности и скорости ветра. Ночью, в пасмурную погоду, а также при ветре 12 м/с и более поправка равна нулю.
  • P - Атмосферное давление - приведенное к уровню моря атмосферное давление.
  • Po - Атмосферное давление - измеренное на уровне метеостанции атмосферное давление.
  • Tmin - Минимальная температура - минимум температуры воздуха на высоте 2 м над землей.
  • Tmax - Максимальная температура - максимум температуры воздуха на высоте 2 м над землей.
  • R - Количество осадков - Количество выпавших осадков за период времени, мм. При наведении курсора мыши на число - период времени, за который выпало указанное количество осадков.
  • R24 - Количество осадков - Количество выпавших осадков за 24 часа, мм.
  • S - Снежный покров - Высота снежного покрова, см. При наведении курсора мыши на число - состояние снежного покрова и степень покрытия местности в баллах.